This is the latest recevied weather packets stored in our database for station/object PE1BMM-13. If no packets are shown the sender has not sent any weather packets the latest 10 day(s).
| Time | Temp. | Humidity | Pressure | Rain* | Wind** | Luminosity | Snow |
|---|---|---|---|---|---|---|---|
| 1778074718 | 14.44° C | 63% | 1010.7 hPa | 0 mm | - | - | - |
| 1778074415 | 14.44° C | 64% | 1010.7 hPa | 0 mm | - | - | - |
| 1778073214 | 15° C | 69% | 1010.5 hPa | 0 mm | - | - | - |
| 1778072915 | 14.44° C | 69% | 1010.5 hPa | 0 mm | - | - | - |
| 1778072312 | 14.44° C | 68% | 1010.5 hPa | 0 mm | - | - | - |
| 1778071094 | 14.44° C | 69% | 1010.5 hPa | 0 mm | - | - | - |
| 1778070186 | 14.44° C | 67% | 1010.3 hPa | 0 mm | - | - | - |
| 1778068080 | 14.44° C | 67% | 1010.4 hPa | 0 mm | - | - | - |
| 1778067780 | 14.44° C | 67% | 1010.3 hPa | 0 mm | - | - | - |
| 1778066880 | 14.44° C | 68% | 1010.4 hPa | 0 mm | - | - | - |
| 1778063842 | 14.44° C | 65% | 1010.3 hPa | 0 mm | - | - | - |
| 1778062924 | 13.89° C | 69% | 1010.3 hPa | 0 mm | - | - | - |
| 1778062618 | 13.89° C | 68% | 1010.3 hPa | 0 mm | - | - | - |
| 1778062415 | 13.89° C | 70% | 1010.3 hPa | 0 mm | - | - | - |
| 1778061703 | 13.33° C | 73% | 1010.3 hPa | 0 mm | - | - | - |
| 1778060476 | 12.78° C | 75% | 1010.2 hPa | 0 mm | - | - | - |
| 1778060172 | 12.78° C | 75% | 1010.2 hPa | 0 mm | - | - | - |
| 1778059864 | 12.78° C | 76% | 1010.2 hPa | 0 mm | - | - | - |
| 1778059558 | 12.78° C | 75% | 1010.2 hPa | 0 mm | - | - | - |
| 1778059252 | 12.78° C | 74% | 1010.2 hPa | 0 mm | - | - | - |
| 1778058946 | 12.78° C | 75% | 1010.1 hPa | 0 mm | - | - | - |
| 1778058334 | 12.78° C | 74% | 1010.2 hPa | 0 mm | - | - | - |
| 1778058028 | 13.33° C | 74% | 1010.1 hPa | 0 mm | - | - | - |
| 1778057722 | 13.33° C | 73% | 1010.1 hPa | 0 mm | - | - | - |
| 1778057170 | 13.33° C | 73% | 1010 hPa | 0 mm | - | - | - |
* Rain latest hour (hover to see other rain measurements)
** Current wind speed in m/s (hover to see current wind gust speed)